This is the latest recevied weather packets stored in our database for station/object WD4IXD. If no packets are shown the sender has not sent any weather packets the latest 10 day(s).
| Time | Temp. | Humidity | Pressure | Rain* | Wind** | Luminosity | Snow |
|---|---|---|---|---|---|---|---|
| 1777820715 | 13.89° C | 32% | 1018.5 hPa | 0 mm | - | 225 W/m² | - |
| 1777820404 | 13.89° C | 32% | 1018.6 hPa | 0 mm | - | 216 W/m² | - |
| 1777820115 | 13.89° C | 32% | 1018.6 hPa | 0 mm | - | 211 W/m² | - |
| 1777819804 | 13.33° C | 32% | 1018.7 hPa | 0 mm | - | 216 W/m² | - |
| 1777819515 | 13.33° C | 32% | 1018.6 hPa | 0 mm | - | 214 W/m² | - |
| 1777819204 | 13.33° C | 33% | 1018.5 hPa | 0 mm | - | 206 W/m² | - |
| 1777818915 | 13.33° C | 33% | 1018.5 hPa | 0 mm | - | 192 W/m² | - |
| 1777818615 | 13.33° C | 33% | 1018.4 hPa | 0 mm | - | 185 W/m² | - |
| 1777818316 | 13.33° C | 33% | 1018.4 hPa | 0 mm | - | 190 W/m² | - |
| 1777818004 | 13.33° C | 33% | 1018.5 hPa | 0 mm | - | 195 W/m² | - |
| 1777817715 | 12.78° C | 34% | 1018.7 hPa | 0 mm | - | 186 W/m² | - |
| 1777817404 | 12.78° C | 34% | 1018.7 hPa | 0 mm | - | 199 W/m² | - |
| 1777817116 | 12.78° C | 35% | 1018.7 hPa | 0 mm | - | 216 W/m² | - |
| 1777816804 | 12.22° C | 35% | 1018.8 hPa | 0 mm | - | 183 W/m² | - |
| 1777816504 | 12.22° C | 35% | 1018.8 hPa | 0 mm | - | 185 W/m² | - |
| 1777816204 | 12.78° C | 35% | 1018.8 hPa | 0 mm | - | 186 W/m² | - |
| 1777815915 | 12.22° C | 36% | 1018.8 hPa | 0 mm | - | 334 W/m² | - |
| 1777815604 | 12.22° C | 37% | 1018.8 hPa | 0 mm | - | 355 W/m² | - |
| 1777815315 | 12.22° C | 37% | 1018.9 hPa | 0 mm | - | 163 W/m² | - |
| 1777815015 | 11.67° C | 37% | 1018.8 hPa | 0 mm | - | 149 W/m² | - |
| 1777814704 | 11.67° C | 39% | 1018.8 hPa | 0 mm | - | 141 W/m² | - |
| 1777814404 | 10.56° C | 42% | 1018.9 hPa | 0 mm | - | 130 W/m² | - |
| 1777814115 | 10.56° C | 42% | 1018.9 hPa | 0 mm | - | 128 W/m² | - |
| 1777813804 | 10.56° C | 40% | 1018.8 hPa | 0 mm | - | 113 W/m² | - |
| 1777813515 | 10.56° C | 39% | 1018.8 hPa | 0 mm | - | 105 W/m² | - |
* Rain latest hour (hover to see other rain measurements)
** Current wind speed in m/s (hover to see current wind gust speed)